This is the latest recevied weather packets stored in our database for station/object CA4LJZ-10. If no packets are shown the sender has not sent any weather packets the latest 10 day(s).
| Time | Temp. | Humidity | Pressure | Rain* | Wind** | Luminosity | Snow |
|---|---|---|---|---|---|---|---|
| 1777422201 | 23.33° C | 38% | 954.8 hPa | - | - | - | - |
| 1777421300 | 22.22° C | 39% | 954.6 hPa | - | - | - | - |
| 1777420399 | 25.56° C | 33% | 955 hPa | - | - | - | - |
| 1777419497 | 27.78° C | 31% | 955.1 hPa | - | - | - | - |
| 1777418620 | 26.11° C | 31% | 955.1 hPa | - | - | - | - |
| 1777417719 | 26.67° C | 31% | 955.3 hPa | - | - | - | - |
| 1777416818 | 27.22° C | 30% | 955.5 hPa | - | - | - | - |
| 1777415917 | 27.22° C | 30% | 955.1 hPa | - | - | - | - |
| 1777415016 | 27.22° C | 30% | 955.1 hPa | - | - | - | - |
| 1777414115 | 27.78° C | 29% | 955.1 hPa | - | - | - | - |
| 1777413214 | 28.33° C | 28% | 954.7 hPa | - | - | - | - |
| 1777412313 | 28.89° C | 28% | 954.6 hPa | - | - | - | - |
| 1777411412 | 30° C | 26% | 954.6 hPa | - | - | - | - |
| 1777410511 | 30.56° C | 25% | 954.3 hPa | - | - | - | - |
| 1777409766 | 31.11° C | 24% | 954.2 hPa | - | - | - | - |
| 1777409643 | 31.11° C | 24% | 954.2 hPa | - | - | - | - |
| 1777409610 | 31.11° C | 24% | 954.2 hPa | - | - | - | - |
| 1777408709 | 31.11° C | 24% | 954.1 hPa | - | - | - | - |
| 1777407808 | 31.67° C | 23% | 954.1 hPa | - | - | - | - |
| 1777406907 | 32.78° C | 22% | 954.2 hPa | - | - | - | - |
| 1777406007 | 32.22° C | 22% | 954.2 hPa | - | - | - | - |
| 1777405105 | 31.11° C | 22% | 954.3 hPa | - | - | - | - |
| 1777404204 | 33.33° C | 21% | 954.3 hPa | - | - | - | - |
| 1777403303 | 33.33° C | 21% | 954.3 hPa | - | - | - | - |
| 1777402402 | 33.33° C | 20% | 954.4 hPa | - | - | - | - |
* Rain since midnight (hover to see other rain measurements)
** Current wind speed in m/s (hover to see current wind gust speed)